Time,TemperatureF,DewpointF,PressureIn,WindDirection,WindDirectionDegrees,WindSpeedMPH,WindSpeedGustMPH,Humidity,HourlyPrecipIn,Conditions,Clouds,dailyrainin,SoftwareType,DateUTC
2013-07-28 00:02:00,54.0,-99.9,-100.00,West,265,1.0,4.0,-999,0.00,,,-99.99,,2013-07-28 04:02:00,
2013-07-28 00:12:00,54.0,-99.9,-100.00,West,265,1.0,2.0,-999,0.00,,,-99.99,,2013-07-28 04:12:00,
2013-07-28 00:22:00,54.0,-99.9,-100.00,West,260,2.0,3.0,-999,0.00,,,-99.99,,2013-07-28 04:22:00,
2013-07-28 00:32:00,54.0,-99.9,-100.00,WSW,250,2.0,4.0,-999,0.00,,,-99.99,,2013-07-28 04:32:00,
2013-07-28 00:43:00,55.0,-99.9,-100.00,WSW,255,3.0,4.0,-999,0.00,,,-99.99,,2013-07-28 04:43:00,
2013-07-28 00:53:00,54.0,-99.9,-100.00,WSW,255,2.0,5.0,-999,0.00,,,-99.99,,2013-07-28 04:53:00,
2013-07-28 01:02:00,54.0,-99.9,-100.00,West,260,1.0,4.0,-999,0.00,,,-99.99,,2013-07-28 05:02:00,
2013-07-28 01:12:00,54.0,-99.9,-100.00,West,260,1.0,3.0,-999,0.00,,,-99.99,,2013-07-28 05:12:00,
2013-07-28 01:22:00,54.0,-99.9,-100.00,WSW,245,2.0,3.0,-999,0.00,,,-99.99,,2013-07-28 05:22:00,
2013-07-28 01:32:00,54.0,-99.9,-100.00,WSW,255,1.0,4.0,-999,0.00,,,-99.99,,2013-07-28 05:32:00,
2013-07-28 01:43:00,53.0,-99.9,-100.00,West,275,1.0,2.0,-999,0.00,,,-99.99,,2013-07-28 05:43:00,
2013-07-28 01:53:00,53.0,-99.9,-100.00,West,260,1.0,4.0,-999,0.00,,,-99.99,,2013-07-28 05:53:00,
2013-07-28 02:02:00,54.0,-99.9,-100.00,WSW,240,1.0,4.0,-999,0.00,,,-99.99,,2013-07-28 06:02:00,
2013-07-28 02:12:00,54.0,-99.9,-100.00,WSW,245,2.0,3.0,-999,0.00,,,-99.99,,2013-07-28 06:12:00,
2013-07-28 02:22:00,53.0,-99.9,-100.00,SW,235,4.0,6.0,-999,0.00,,,-99.99,,2013-07-28 06:22:00,
2013-07-28 02:32:00,54.0,-99.9,-100.00,WSW,245,3.0,6.0,-999,0.00,,,-99.99,,2013-07-28 06:32:00,
2013-07-28 02:53:00,53.0,-99.9,-100.00,WSW,250,3.0,5.0,-999,0.00,,,-99.99,,2013-07-28 06:53:00,
2013-07-28 03:02:00,53.0,-99.9,-100.00,SW,230,4.0,6.0,-999,0.00,,,-99.99,,2013-07-28 07:02:00,
2013-07-28 03:12:00,53.0,-99.9,-100.00,WSW,245,2.0,6.0,-999,0.00,,,-99.99,,2013-07-28 07:12:00,
2013-07-28 03:23:00,53.0,-99.9,-100.00,SW,230,4.0,7.0,-999,0.00,,,-99.99,,2013-07-28 07:23:00,
2013-07-28 03:43:00,53.0,-99.9,-100.00,SW,235,4.0,6.0,-999,0.00,,,-99.99,,2013-07-28 07:43:00,
2013-07-28 03:53:00,53.0,-99.9,-100.00,SW,230,4.0,7.0,-999,0.00,,,-99.99,,2013-07-28 07:53:00,
2013-07-28 04:02:00,53.0,-99.9,-100.00,SW,235,4.0,7.0,-999,0.00,,,-99.99,,2013-07-28 08:02:00,
2013-07-28 04:12:00,53.0,-99.9,-100.00,WSW,240,2.0,6.0,-999,0.00,,,-99.99,,2013-07-28 08:12:00,
2013-07-28 04:33:00,53.0,-99.9,-100.00,SW,235,3.0,6.0,-999,0.00,,,-99.99,,2013-07-28 08:33:00,
2013-07-28 04:43:00,53.0,-99.9,-100.00,WSW,240,4.0,7.0,-999,0.00,,,-99.99,,2013-07-28 08:43:00,
2013-07-28 05:12:00,52.0,-99.9,-100.00,SSW,195,4.0,7.0,-999,0.00,,,-99.99,,2013-07-28 09:12:00,
2013-07-28 05:22:00,51.0,-99.9,-100.00,South,185,6.0,8.0,-999,0.00,,,-99.99,,2013-07-28 09:22:00,
2013-07-28 05:32:00,51.0,-99.9,-100.00,South,190,5.0,8.0,-999,0.00,,,-99.99,,2013-07-28 09:32:00,
2013-07-28 05:43:00,51.0,-99.9,-100.00,SSW,200,4.0,7.0,-999,0.00,,,-99.99,,2013-07-28 09:43:00,
2013-07-28 05:53:00,51.0,-99.9,-100.00,SSW,195,4.0,6.0,-999,0.00,,,-99.99,,2013-07-28 09:53:00,
2013-07-28 06:12:00,52.0,-99.9,-100.00,SW,215,4.0,8.0,-999,0.00,,,-99.99,,2013-07-28 10:12:00,
2013-07-28 06:22:00,52.0,-99.9,-100.00,SW,225,4.0,9.0,-999,0.00,,,-99.99,,2013-07-28 10:22:00,
2013-07-28 06:42:00,53.0,-99.9,-100.00,WSW,240,6.0,9.0,-999,0.00,,,-99.99,,2013-07-28 10:42:00,
2013-07-28 06:53:00,53.0,-99.9,-100.00,WSW,240,4.0,10.0,-999,0.00,,,-99.99,,2013-07-28 10:53:00,
2013-07-28 07:02:00,53.0,-99.9,-100.00,WSW,240,4.0,10.0,-999,0.00,,,-99.99,,2013-07-28 11:02:00,
2013-07-28 07:12:00,53.0,-99.9,-100.00,SW,235,4.0,9.0,-999,0.00,,,-99.99,,2013-07-28 11:12:00,
2013-07-28 07:22:00,53.0,-99.9,-100.00,SW,235,4.0,8.0,-999,0.00,,,-99.99,,2013-07-28 11:22:00,
2013-07-28 07:33:00,53.0,-99.9,-100.00,WSW,240,4.0,9.0,-999,0.00,,,-99.99,,2013-07-28 11:33:00,
2013-07-28 07:43:00,53.0,-99.9,-100.00,SW,235,6.0,9.0,-999,0.00,,,-99.99,,2013-07-28 11:43:00,
2013-07-28 07:54:00,54.0,-99.9,-100.00,WSW,240,6.0,11.0,-999,0.00,,,-99.99,,2013-07-28 11:54:00,
2013-07-28 08:03:00,54.0,-99.9,-100.00,WSW,255,7.0,12.0,-999,0.00,,,-99.99,,2013-07-28 12:03:00,
2013-07-28 08:13:00,54.0,-99.9,-100.00,WSW,245,6.0,11.0,-999,0.00,,,-99.99,,2013-07-28 12:13:00,
2013-07-28 08:22:00,55.0,-99.9,-100.00,West,260,6.0,12.0,-999,0.00,,,-99.99,,2013-07-28 12:22:00,
2013-07-28 08:33:00,55.0,-99.9,-100.00,WSW,255,7.0,13.0,-999,0.00,,,-99.99,,2013-07-28 12:33:00,
2013-07-28 08:43:00,55.0,54.0,-100.00,West,260,8.0,14.0,94,0.00,,,-99.99,,2013-07-28 12:43:00,
2013-07-28 08:53:00,56.0,54.0,-100.00,WSW,250,6.0,11.0,92,0.00,,,-99.99,,2013-07-28 12:53:00,
2013-07-28 09:02:00,56.0,51.0,-100.00,WSW,255,9.0,11.0,82,0.00,,,-99.99,,2013-07-28 13:02:00,
2013-07-28 09:12:00,57.0,52.0,-100.00,SW,225,6.0,12.0,81,0.00,,,-99.99,,2013-07-28 13:12:00,
2013-07-28 09:22:00,57.0,50.0,-100.00,WSW,250,8.0,13.0,77,0.00,,,-99.99,,2013-07-28 13:22:00,
2013-07-28 09:32:00,58.0,48.0,-100.00,WSW,255,11.0,15.0,69,0.00,,,-99.99,,2013-07-28 13:32:00,
2013-07-28 09:43:00,58.0,49.0,-100.00,West,265,12.0,21.0,72,0.00,,,-99.99,,2013-07-28 13:43:00,
2013-07-28 09:53:00,58.0,48.0,-100.00,West,265,10.0,19.0,68,0.00,,,-99.99,,2013-07-28 13:53:00,
2013-07-28 10:02:00,58.0,48.0,-100.00,WSW,255,10.0,20.0,69,0.00,,,-99.99,,2013-07-28 14:02:00,
2013-07-28 10:12:00,58.0,48.0,-100.00,WSW,250,9.0,15.0,70,0.00,,,-99.99,,2013-07-28 14:12:00,
2013-07-28 10:23:00,58.0,49.0,-100.00,WSW,250,9.0,14.0,70,0.00,,,-99.99,,2013-07-28 14:23:00,
2013-07-28 10:33:00,59.0,49.0,-100.00,West,265,9.0,14.0,69,0.00,,,-99.99,,2013-07-28 14:33:00,
2013-07-28 10:43:00,60.0,50.0,-100.00,WSW,250,7.0,16.0,68,0.00,,,-99.99,,2013-07-28 14:43:00,
2013-07-28 10:53:00,60.0,49.0,-100.00,West,260,11.0,17.0,65,0.00,,,-99.99,,2013-07-28 14:53:00,
2013-07-28 11:22:00,61.0,48.0,-100.00,WSW,245,13.0,20.0,61,0.00,,,-99.99,,2013-07-28 15:22:00,
2013-07-28 11:32:00,62.0,47.0,-100.00,WSW,255,16.0,24.0,59,0.00,,,-99.99,,2013-07-28 15:32:00,
2013-07-28 11:43:00,62.0,49.0,-100.00,WNW,285,13.0,22.0,62,0.00,,,-99.99,,2013-07-28 15:43:00,
2013-07-28 11:53:00,62.0,49.0,-100.00,West,265,17.0,25.0,61,0.00,,,-99.99,,2013-07-28 15:53:00,
2013-07-28 12:03:00,62.0,49.0,-100.00,West,265,12.0,22.0,61,0.00,,,-99.99,,2013-07-28 16:03:00,
2013-07-28 12:12:00,63.0,49.0,-100.00,WSW,255,13.0,22.0,59,0.00,,,-99.99,,2013-07-28 16:12:00,
2013-07-28 12:22:00,63.0,50.0,-100.00,West,265,12.0,25.0,63,0.00,,,-99.99,,2013-07-28 16:22:00,
2013-07-28 12:33:00,63.0,49.0,-100.00,West,275,11.0,21.0,61,0.00,,,-99.99,,2013-07-28 16:33:00,
2013-07-28 12:43:00,62.0,49.0,-100.00,West,280,14.0,21.0,60,0.00,,,-99.99,,2013-07-28 16:43:00,
2013-07-28 12:52:00,63.0,51.0,-100.00,West,260,17.0,24.0,64,0.00,,,-99.99,,2013-07-28 16:52:00,
2013-07-28 13:02:00,63.0,52.0,-100.00,West,270,11.0,19.0,66,0.00,,,-99.99,,2013-07-28 17:02:00,
2013-07-28 13:13:00,64.0,48.0,-100.00,WSW,255,14.0,22.0,55,0.00,,,-99.99,,2013-07-28 17:13:00,
2013-07-28 13:23:00,64.0,47.0,-100.00,West,265,12.0,23.0,53,0.00,,,-99.99,,2013-07-28 17:23:00,
2013-07-28 13:32:00,65.0,49.0,-100.00,West,265,13.0,16.0,56,0.00,,,-99.99,,2013-07-28 17:32:00,
2013-07-28 13:43:00,65.0,49.0,-100.00,WSW,245,12.0,19.0,56,0.00,,,-99.99,,2013-07-28 17:43:00,
2013-07-28 13:53:00,65.0,49.0,-100.00,WNW,285,13.0,20.0,56,0.00,,,-99.99,,2013-07-28 17:53:00,
2013-07-28 14:03:00,65.0,50.0,-100.00,WNW,290,7.0,14.0,56,0.00,,,-99.99,,2013-07-28 18:03:00,
2013-07-28 14:13:00,64.0,49.0,-100.00,WNW,290,12.0,19.0,57,0.00,,,-99.99,,2013-07-28 18:13:00,
2013-07-28 14:22:00,64.0,49.0,-100.00,West,265,9.0,12.0,57,0.00,,,-99.99,,2013-07-28 18:22:00,
2013-07-28 14:33:00,64.0,49.0,-100.00,WNW,285,7.0,12.0,58,0.00,,,-99.99,,2013-07-28 18:33:00,
2013-07-28 14:43:00,64.0,49.0,-100.00,NW,305,7.0,12.0,58,0.00,,,-99.99,,2013-07-28 18:43:00,
2013-07-28 14:52:00,63.0,49.0,-100.00,NW,305,9.0,12.0,61,0.00,,,-99.99,,2013-07-28 18:52:00,
2013-07-28 15:02:00,63.0,51.0,-100.00,WNW,290,7.0,11.0,63,0.00,,,-99.99,,2013-07-28 19:02:00,
2013-07-28 15:12:00,63.0,50.0,-100.00,WNW,290,10.0,13.0,61,0.00,,,-99.99,,2013-07-28 19:12:00,
2013-07-28 15:22:00,63.0,50.0,-100.00,West,280,8.0,12.0,63,0.00,,,-99.99,,2013-07-28 19:22:00,
2013-07-28 15:33:00,64.0,49.0,-100.00,WNW,290,17.0,23.0,59,0.00,,,-99.99,,2013-07-28 19:33:00,
2013-07-28 15:43:00,64.0,49.0,-100.00,WNW,285,12.0,19.0,58,0.00,,,-99.99,,2013-07-28 19:43:00,
2013-07-28 15:52:00,64.0,50.0,-100.00,WNW,290,10.0,22.0,60,0.00,,,-99.99,,2013-07-28 19:52:00,
2013-07-28 16:02:00,66.0,50.0,-100.00,WNW,295,11.0,16.0,55,0.00,,,-99.99,,2013-07-28 20:02:00,
2013-07-28 16:13:00,66.0,51.0,-100.00,WNW,300,11.0,22.0,57,0.00,,,-99.99,,2013-07-28 20:13:00,
2013-07-28 16:23:00,66.0,51.0,-100.00,WNW,295,11.0,19.0,57,0.00,,,-99.99,,2013-07-28 20:23:00,
2013-07-28 16:33:00,66.0,51.0,-100.00,WNW,295,11.0,19.0,57,0.00,,,-99.99,,2013-07-28 20:33:00,
2013-07-28 16:43:00,65.0,49.0,-100.00,West,280,17.0,24.0,55,0.00,,,-99.99,,2013-07-28 20:43:00,
2013-07-28 16:52:00,66.0,49.0,-100.00,West,265,13.0,19.0,52,0.00,,,-99.99,,2013-07-28 20:52:00,
2013-07-28 17:03:00,65.0,50.0,-100.00,West,270,12.0,20.0,58,0.00,,,-99.99,,2013-07-28 21:03:00,
2013-07-28 17:13:00,66.0,50.0,-100.00,West,280,12.0,19.0,56,0.00,,,-99.99,,2013-07-28 21:13:00,
2013-07-28 17:22:00,65.0,49.0,-100.00,West,280,11.0,16.0,55,0.00,,,-99.99,,2013-07-28 21:22:00,
2013-07-28 17:33:00,65.0,48.0,-100.00,WNW,290,12.0,16.0,53,0.00,,,-99.99,,2013-07-28 21:33:00,
2013-07-28 17:44:00,65.0,47.0,-100.00,West,275,15.0,20.0,52,0.00,,,-99.99,,2013-07-28 21:44:00,
2013-07-28 17:52:00,65.0,47.0,-100.00,WNW,290,14.0,22.0,53,0.00,,,-99.99,,2013-07-28 21:52:00,
2013-07-28 18:02:00,65.0,47.0,-100.00,West,280,13.0,19.0,52,0.00,,,-99.99,,2013-07-28 22:02:00,
2013-07-28 18:12:00,64.0,48.0,-100.00,WNW,295,11.0,15.0,54,0.00,,,-99.99,,2013-07-28 22:12:00,
2013-07-28 18:22:00,64.0,49.0,-100.00,WNW,295,9.0,16.0,59,0.00,,,-99.99,,2013-07-28 22:22:00,
2013-07-28 18:32:00,64.0,49.0,-100.00,WNW,290,9.0,15.0,60,0.00,,,-99.99,,2013-07-28 22:32:00,
2013-07-28 18:43:00,64.0,50.0,-100.00,WNW,290,9.0,14.0,61,0.00,,,-99.99,,2013-07-28 22:43:00,
2013-07-28 18:52:00,64.0,50.0,-100.00,WNW,290,12.0,15.0,60,0.00,,,-99.99,,2013-07-28 22:52:00,
2013-07-28 19:03:00,63.0,49.0,-100.00,WNW,290,10.0,16.0,59,0.00,,,-99.99,,2013-07-28 23:03:00,
2013-07-28 19:12:00,63.0,49.0,-100.00,WNW,290,9.0,13.0,59,0.00,,,-99.99,,2013-07-28 23:12:00,
2013-07-28 19:22:00,63.0,49.0,-100.00,WNW,295,9.0,14.0,60,0.00,,,-99.99,,2013-07-28 23:22:00,
2013-07-28 19:32:00,63.0,49.0,-100.00,NW,305,7.0,13.0,61,0.00,,,-99.99,,2013-07-28 23:32:00,
2013-07-28 19:43:00,63.0,49.0,-100.00,WNW,290,9.0,13.0,60,0.00,,,-99.99,,2013-07-28 23:43:00,
2013-07-28 19:53:00,63.0,49.0,-100.00,WNW,300,7.0,14.0,61,0.00,,,-99.99,,2013-07-28 23:53:00,
2013-07-28 20:03:00,63.0,50.0,-100.00,WNW,295,7.0,11.0,62,0.00,,,-99.99,,2013-07-29 00:03:00,
2013-07-28 20:12:00,62.0,50.0,-100.00,WNW,295,7.0,11.0,63,0.00,,,-99.99,,2013-07-29 00:12:00,
2013-07-28 20:22:00,62.0,49.0,-100.00,NW,305,6.0,9.0,62,0.00,,,-99.99,,2013-07-29 00:22:00,
2013-07-28 20:43:00,61.0,48.0,-100.00,WNW,300,6.0,9.0,63,0.00,,,-99.99,,2013-07-29 00:43:00,
2013-07-28 20:52:00,60.0,49.0,-100.00,NW,310,4.0,9.0,65,0.00,,,-99.99,,2013-07-29 00:52:00,
2013-07-28 21:02:00,60.0,49.0,-100.00,NW,310,2.0,5.0,68,0.00,,,-99.99,,2013-07-29 01:02:00,
2013-07-28 21:14:00,60.0,50.0,-100.00,NW,320,3.0,4.0,69,0.00,,,-99.99,,2013-07-29 01:14:00,
2013-07-28 21:29:00,59.0,51.0,-100.00,WNW,290,1.0,5.0,73,0.00,,,-99.99,,2013-07-29 01:29:00,
2013-07-28 21:36:00,59.0,50.0,-100.00,WNW,285,1.0,2.0,72,0.00,,,-99.99,,2013-07-29 01:36:00,
2013-07-28 21:45:00,59.0,51.0,-100.00,WNW,300,0.0,1.0,74,0.00,,,-99.99,,2013-07-29 01:45:00,
2013-07-28 22:05:00,59.0,51.0,-100.00,SW,230,1.0,1.0,75,0.00,,,-99.99,,2013-07-29 02:05:00,
2013-07-28 22:14:00,59.0,51.0,-100.00,WSW,250,0.0,2.0,73,0.00,,,-99.99,,2013-07-29 02:14:00,
2013-07-28 22:37:00,58.0,53.0,-100.00,WSW,255,0.0,0.0,85,0.00,,,-99.99,,2013-07-29 02:37:00,
2013-07-28 22:47:00,57.0,55.0,-100.00,SSW,200,0.0,1.0,92,0.00,,,-99.99,,2013-07-29 02:47:00,
2013-07-28 23:00:00,57.0,-99.9,-100.00,South,185,1.0,1.0,-999,0.00,,,-99.99,,2013-07-29 03:00:00,
2013-07-28 23:07:00,57.0,-99.9,-100.00,South,185,1.0,1.0,-999,0.00,,,-99.99,,2013-07-29 03:07:00,
2013-07-28 23:18:00,56.0,-99.9,-100.00,South,185,0.0,0.0,-999,0.00,,,-99.99,,2013-07-29 03:18:00,
2013-07-28 23:38:00,56.0,-99.9,-100.00,South,170,0.0,0.0,-999,0.00,,,-99.99,,2013-07-29 03:38:00,
2013-07-28 23:52:00,56.0,-99.9,-100.00,South,170,0.0,0.0,-999,0.00,,,-99.99,,2013-07-29 03:52:00,
2013-07-28 23:58:00,55.0,-99.9,-100.00,South,180,1.0,1.0,-999,0.00,,,-99.99,,2013-07-29 03:58:00,